Temperature
21 21 21 21 21 21 20 20 21 21 19 16 15 13 11 9 10 9 8 9 9 9 10 12 13 13 14 14 14 15 15 15 15 15 15 15 15 14 14 15 15 15 15 15 15 15 16 16 16
22 22 22 22 21 19 19 19 19 19 19 16 14 13 11 8 7 8 8 9 9 9 10 11 12 13 13 13 14 14 14 14 14 14 14 15 15 15 14 14 14 14 15 15 15 16 16 16 16
23 22 22 21 19 18 18 18 19 18 17 16 12 10 9 8 7 8 8 9 9 9 10 11 12 12 13 13 13 13 13 14 14 14 14 14 14 14 14 14 14 14 14 14 15 15 16 16 16
22 23 23 19 16 17 17 17 19 19 17 15 13 10 8 7 8 8 9 9 9 10 10 11 12 12 12 12 13 13 13 13 13 13 13 13 13 14 14 14 14 14 14 14 14 14 15 15 15
23 23 20 18 16 16 16 17 16 16 16 14 12 10 8 8 9 9 9 9 9 10 10 10 11 11 11 12 12 12 12 12 12 13 13 13 13 13 13 13 13 13 13 14 14 14 14 14 15
24 24 20 17 17 16 15 14 15 14 13 13 13 11 9 9 9 9 9 9 9 9 10 10 11 11 11 11 11 11 12 12 12 12 12 12 12 12 12 13 13 13 13 13 13 14 14 14 14
24 21 19 18 17 16 15 13 13 12 11 11 13 11 9 9 9 9 8 8 8 9 9 10 10 11 11 11 11 11 11 11 11 11 12 12 12 12 12 12 12 12 12 13 13 13 13 14 14
24 22 20 19 17 15 14 13 11 11 10 10 10 10 9 9 8 8 8 8 8 8 9 9 10 10 10 10 10 10 10 10 10 10 11 11 11 12 12 12 12 12 12 12 12 12 13 13 13
24 20 18 18 17 15 15 13 11 10 10 9 9 9 8 8 8 8 8 8 8 8 8 9 9 9 9 9 9 9 8 8 8 8 8 9 10 10 11 11 11 11 11 11 11 12 12 12 13
21 17 16 16 16 15 14 13 13 11 10 9 9 8 8 7 7 7 7 7 7 7 7 7 8 8 8 8 8 8 7 7 6 6 5 6 7 7 8 9 10 11 11 11 11 11 11 12 12
18 15 15 14 14 13 12 12 12 11 9 8 8 7 7 7 6 6 5 5 5 5 6 6 6 6 6 6 6 5 5 5 4 4 3 4 4 5 6 7 8 9 9 10 11 12 11 11 11
16 15 15 14 13 13 12 10 9 9 8 8 7 7 6 6 5 5 4 4 4 4 4 4 4 3 3 3 3 3 3 3 3 2 1 2 2 3 4 4 5 5 6 7 9 10 10 11 11
14 12 12 11 11 11 10 9 9 8 8 8 7 7 6 5 5 4 4 4 4 3 3 3 3 3 3 2 2 2 2 2 1 1 0 0 1 1 1 2 2 3 3 4 6 7 8 9 10
13 12 12 12 11 11 10 10 9 8 8 8 7 7 6 5 4 4 4 3 3 2 2 2 2 2 2 1 1 0 0 0 0 -0 -1 -1 -1 -1 -1 -0 0 0 1 2 3 4 5 6 7
14 13 13 12 12 11 11 9 9 8 8 8 8 7 6 5 4 3 3 3 2 1 1 1 1 1 1 0 -0 -1 -1 -1 -1 -2 -2 -2 -2 -2 -2 -2 -2 -2 -1 0 1 2 3 4 5
16 15 14 13 13 13 12 9 9 8 9 8 8 7 6 5 4 3 3 2 1 0 -0 -0 -1 -0 -0 -1 -1 -1 -1 -1 -2 -2 -2 -3 -3 -3 -3 -3 -3 -3 -3 -2 -1 -0 1 2 3
17 18 15 14 14 14 13 9 9 8 8 8 8 7 6 5 4 3 3 2 1 -0 -1 -1 -1 -1 -1 -2 -2 -2 -2 -2 -3 -3 -4 -4 -4 -4 -4 -4 -5 -5 -4 -4 -3 -3 -2 -0 1
19 20 18 14 13 14 12 8 8 8 8 8 8 7 6 5 4 3 2 1 0 -1 -1 -2 -2 -2 -2 -2 -2 -3 -3 -4 -4 -5 -5 -5 -5 -5 -5 -6 -5 -5 -5 -5 -5 -5 -4 -3 -1
19 19 18 13 12 13 12 9 8 8 8 8 7 7 6 5 4 3 2 1 -0 -1 -2 -3 -3 -4 -4 -4 -4 -5 -5 -5 -5 -5 -6 -6 -6 -6 -6 -6 -6 -6 -6 -6 -6 -6 -5 -5 -4
19 19 17 12 12 13 11 10 9 8 8 7 6 7 6 5 4 3 2 0 -1 -2 -3 -4 -4 -5 -5 -5 -6 -6 -6 -6 -6 -6 -6 -7 -7 -7 -7 -7 -7 -7 -7 -6 -6 -6 -6 -6 -5
19 16 15 14 11 11 11 10 9 8 7 7 7 7 6 5 4 3 1 -0 -2 -3 -4 -4 -5 -5 -6 -6 -6 -6 -6 -6 -6 -6 -7 -7 -8 -8 -8 -8 -8 -8 -8 -7 -7 -6 -6 -6 -5
17 14 14 14 12 12 10 11 8 7 7 8 7 6 5 4 3 2 0 -1 -2 -3 -4 -5 -5 -6 -6 -6 -7 -7 -8 -8 -8 -8 -8 -8 -8 -8 -9 -9 -9 -9 -8 -8 -8 -7 -7 -6 -6
15 14 14 14 13 13 11 11 9 8 7 7 7 6 5 4 3 1 -0 -1 -3 -4 -4 -5 -6 -6 -7 -7 -7 -8 -8 -9 -8 -8 -8 -8 -8 -9 -9 -9 -10 -9 -9 -9 -8 -8 -7 -7 -6
15 15 14 14 13 13 15 12 10 8 8 6 6 5 4 3 2 1 -1 -2 -3 -4 -5 -5 -6 -7 -7 -7 -8 -8 -9 -9 -9 -9 -9 -9 -9 -9 -10 -10 -10 -10 -10 -9 -9 -8 -8 -7 -6
15 15 15 15 14 15 15 14 8 6 6 6 6 5 4 3 1 -0 -1 -3 -3 -4 -5 -6 -6 -6 -7 -8 -8 -9 -9 -10 -10 -10 -10 -10 -10 -10 -11 -11 -11 -11 -10 -10 -9 -9 -8 -7 -7
15 15 13 13 14 14 15 12 6 6 6 6 6 5 4 2 1 -1 -2 -3 -4 -5 -5 -5 -6 -7 -7 -8 -9 -9 -10 -10 -11 -11 -11 -11 -11 -11 -11 -12 -11 -11 -11 -10 -10 -9 -8 -8 -7
14 13 13 12 13 13 14 6 6 7 7 6 5 4 3 1 -0 -1 -2 -3 -4 -5 -5 -6 -7 -7 -8 -8 -9 -10 -10 -11 -11 -11 -11 -12 -12 -12 -12 -12 -12 -12 -11 -11 -10 -9 -9 -8 -7
14 13 12 13 12 11 13 12 7 6 6 6 5 4 2 1 -0 -2 -3 -3 -4 -5 -6 -6 -7 -8 -8 -9 -10 -10 -11 -11 -11 -12 -12 -12 -12 -12 -12 -12 -12 -12 -12 -11 -11 -10 -9 -8 -7
14 14 14 13 12 10 10 10 7 6 6 5 5 3 2 0 -1 -2 -3 -4 -5 -5 -6 -7 -8 -8 -9 -9 -10 -11 -11 -12 -12 -12 -12 -12 -13 -13 -13 -13 -13 -13 -12 -11 -11 -10 -9 -8 -8
12 13 12 11 12 12 10 8 7 6 6 5 4 3 1 -0 -1 -2 -3 -4 -5 -6 -7 -7 -8 -9 -9 -10 -10 -11 -11 -12 -12 -13 -13 -13 -13 -13 -13 -13 -13 -13 -12 -12 -11 -10 -9 -8 -8
Wind_Speed
18 16 6 2 2 10 18 16 16 12 9 19 17 15 15 12 10 7 6 14 18 15 21 26 30 33 33 33 33 32 31 31 30 30 27 24 21 18 16 15 15 15 15 14 14 14 13 12 11
13 10 4 2 8 12 14 15 19 20 14 13 15 15 13 12 7 4 7 14 18 15 19 26 29 31 32 32 33 33 32 32 31 30 29 28 27 25 22 18 17 16 15 14 15 15 14 13 12
11 7 2 5 13 12 11 11 13 21 22 11 9 11 8 7 6 6 9 15 16 16 19 26 30 30 31 32 31 32 32 31 32 32 30 29 28 27 26 24 21 18 16 15 15 15 14 13 12
5 2 6 13 19 17 14 13 10 12 14 15 11 10 7 5 3 5 9 13 14 19 22 26 30 31 30 31 31 31 31 31 31 31 31 29 28 28 27 27 25 23 20 17 17 16 14 12 12
4 5 11 13 14 12 16 17 21 21 10 14 14 9 6 3 2 3 7 14 14 18 24 26 31 33 32 31 32 31 30 31 30 30 31 29 28 28 27 27 27 27 25 22 19 17 15 13 12
2 6 11 13 15 14 15 18 16 18 14 12 9 9 6 5 5 6 10 14 19 20 24 27 31 33 34 32 32 31 30 31 30 30 31 30 28 28 27 27 27 27 26 25 23 20 17 16 14
9 10 12 14 11 9 9 10 15 12 12 12 9 7 6 10 9 8 10 15 18 23 25 28 29 31 33 32 32 32 30 30 30 29 31 30 28 28 27 28 28 28 27 26 25 22 20 18 15
2 7 12 10 9 6 7 8 9 12 10 10 12 8 7 9 11 11 10 11 15 21 25 28 29 30 31 30 30 31 30 30 31 29 30 29 28 27 27 28 28 28 28 27 26 25 23 21 18
7 9 9 7 7 8 10 8 8 10 13 15 15 14 11 10 10 11 12 13 15 18 21 26 27 28 29 28 28 29 28 28 29 28 30 28 25 25 25 27 28 28 28 27 27 28 27 23 19
9 6 8 10 11 12 13 11 9 9 15 14 12 13 11 11 12 13 15 16 18 18 16 23 25 26 27 26 25 25 25 26 27 27 27 26 25 24 25 27 27 27 27 26 27 29 26 23 18
7 8 9 13 15 14 13 12 12 10 11 12 10 11 10 11 13 14 14 14 13 14 15 20 25 26 26 24 23 22 22 23 24 25 26 26 24 23 23 23 23 24 23 22 24 23 21 21 19
8 13 11 10 11 12 10 8 10 14 9 9 9 10 10 12 13 14 14 13 13 12 15 17 25 25 25 24 22 22 21 21 22 23 24 23 20 21 22 20 22 21 19 19 19 18 20 21 21
10 9 15 17 18 17 17 15 12 11 9 8 9 10 11 11 12 11 12 13 14 15 16 15 24 25 26 23 21 21 21 22 23 23 22 23 20 18 20 20 20 20 20 19 17 15 15 15 16
13 16 14 12 11 10 14 11 7 7 7 7 8 8 9 10 12 11 12 14 15 15 15 16 22 26 26 22 19 19 21 22 22 22 22 23 23 21 20 18 18 19 21 21 18 16 13 11 12
16 12 11 8 8 10 10 9 7 7 5 6 7 8 9 10 11 11 11 12 13 14 14 14 21 26 26 24 21 20 21 23 20 20 21 23 24 23 22 17 15 19 22 21 18 15 13 12 13
9 7 7 8 9 7 5 5 7 5 4 5 6 8 8 9 10 10 10 10 12 13 14 13 21 22 24 23 21 21 21 23 21 20 21 23 25 25 23 17 15 22 22 18 11 11 12 12 13
8 6 8 6 2 4 5 7 7 4 3 4 6 7 8 9 10 9 10 10 12 13 13 13 15 18 21 22 22 21 21 21 21 20 20 23 23 25 23 18 18 22 18 14 12 12 12 13 13
5 6 6 8 3 2 2 8 7 5 2 3 6 7 7 8 8 8 9 10 11 12 12 12 13 18 21 19 19 16 17 19 20 19 21 23 23 25 23 18 20 21 13 11 12 14 13 12 13
7 7 6 5 3 1 4 9 8 6 4 4 6 6 6 7 8 9 9 10 10 11 12 13 13 13 14 11 12 12 12 11 13 18 22 22 23 25 22 17 18 18 12 14 15 14 15 12 12
5 6 5 6 4 2 4 7 9 7 4 5 3 4 6 8 9 9 10 9 9 10 12 12 13 13 13 11 10 9 10 9 14 19 21 21 23 24 21 18 15 15 12 14 15 15 12 12 11
3 5 5 2 5 3 3 7 11 9 6 6 4 2 8 9 9 9 10 9 9 10 11 13 11 11 14 17 14 12 7 9 9 10 8 19 23 22 21 20 18 15 10 11 14 14 14 13 11
4 5 6 3 3 4 7 3 8 10 8 7 3 7 8 8 8 9 10 9 9 9 9 10 11 9 12 15 11 13 12 12 13 11 10 19 23 22 21 20 20 16 12 12 13 14 13 13 11
5 3 5 6 5 4 7 5 5 9 8 6 7 8 7 7 9 9 9 8 8 8 8 9 10 9 11 12 10 10 10 9 10 11 12 10 17 20 21 22 20 17 13 11 13 15 14 12 12
8 7 7 5 4 5 4 6 4 3 6 8 7 6 7 8 9 8 8 8 8 8 8 8 10 10 9 9 9 10 11 12 13 13 12 12 9 13 19 22 21 19 14 12 13 14 15 13 14
6 7 2 3 4 3 2 2 6 8 10 7 5 6 8 8 8 8 9 9 9 9 9 9 10 11 11 10 10 11 11 11 11 12 12 13 12 11 10 20 18 17 17 18 16 15 15 15 15
6 6 4 5 6 6 4 4 7 9 7 3 5 6 7 8 8 8 9 8 8 9 9 10 11 11 11 11 11 9 9 8 8 11 11 11 11 10 15 20 20 20 20 20 16 13 15 14 14
6 6 2 3 7 6 1 7 6 6 5 4 6 6 8 8 8 8 8 8 8 9 9 10 11 11 11 11 11 10 9 10 10 10 9 7 10 16 19 20 18 19 20 19 15 13 16 15 14
3 4 4 4 5 6 9 3 5 7 3 5 5 6 8 8 7 7 7 7 7 8 8 9 9 10 10 11 11 14 10 9 10 9 11 10 13 18 16 15 16 16 17 17 15 16 16 18 16
1 3 2 4 5 3 6 2 6 7 3 3 5 7 8 8 7 7 7 8 7 8 8 8 9 10 10 11 11 11 10 9 11 9 10 11 13 16 13 14 15 17 17 15 16 17 19 18 16
3 4 3 3 5 3 5 1 7 7 4 5 6 6 7 8 8 8 8 8 8 8 8 9 9 9 10 10 11 11 11 10 11 12 12 16 14 14 15 16 16 18 18 17 17 18 21 18 14
Wind_Direction
310 300 275 254 71 71 65 52 46 60 78 63 61 70 74 57 47 71 290 303 329 352 9 10 20 24 25 25 25 24 23 21 19 16 11 5 357 349 344 340 338 334 332 331 326 322 315 304 297
304 301 300 286 84 80 68 58 50 44 96 89 60 58 65 64 48 26 313 321 337 359 20 15 21 25 25 25 25 24 23 22 20 17 14 11 9 4 356 350 344 336 329 327 323 316 312 304 293
281 272 300 48 63 63 60 47 79 62 51 64 73 48 49 41 19 345 316 326 349 10 24 21 20 22 24 24 24 23 21 21 20 18 15 12 10 9 7 2 357 349 338 328 321 313 309 307 300
291 256 71 76 73 50 46 30 32 83 58 54 80 70 70 37 337 304 315 351 11 18 19 20 19 18 19 20 19 19 19 18 18 16 14 13 12 10 9 8 4 358 350 337 325 316 309 308 306
222 78 83 86 81 66 44 47 51 58 59 62 78 90 85 40 264 297 7 25 21 17 16 16 17 14 12 14 13 13 14 13 13 14 12 9 9 10 9 10 7 2 355 347 337 325 313 307 305
259 95 96 95 99 89 59 41 55 59 53 36 84 103 76 39 17 47 38 33 27 18 17 14 14 12 9 7 9 7 8 8 7 9 8 6 5 6 6 6 4 0 357 352 344 334 323 312 305
69 84 102 109 100 75 61 59 46 55 43 14 16 90 79 33 22 39 46 33 28 23 19 15 13 11 7 3 5 3 4 5 2 5 5 2 1 1 1 2 359 357 355 352 347 338 329 318 306
26 101 97 95 88 89 77 69 56 44 49 29 30 64 58 27 29 27 35 32 25 25 19 16 10 10 6 360 2 360 360 2 359 1 1 0 359 358 357 357 354 354 352 350 350 346 336 324 310
52 74 52 42 99 110 118 105 87 83 80 70 64 65 59 38 32 29 26 24 22 20 17 14 8 8 5 359 359 357 357 359 357 356 358 358 356 355 354 352 350 352 350 350 350 346 341 332 315
38 68 57 48 83 94 84 83 99 83 68 70 67 59 52 47 35 30 26 20 18 14 11 11 6 5 4 360 358 356 355 356 354 353 356 357 355 353 353 347 347 349 347 351 348 345 343 341 331
53 89 94 75 86 91 84 63 60 99 63 57 57 55 43 43 41 32 27 22 16 11 9 9 4 3 3 357 356 354 353 353 351 351 357 358 355 352 351 346 343 343 345 350 347 344 338 334 329
81 68 91 93 94 94 89 84 65 68 87 80 68 57 49 40 40 34 24 18 13 11 10 7 2 2 360 357 355 354 351 351 349 349 357 1 357 352 349 343 340 340 344 347 344 335 331 331 327
85 83 76 83 82 85 90 90 93 94 99 94 79 63 53 49 39 36 25 19 13 11 9 7 2 3 357 355 355 353 351 350 347 347 355 5 359 351 347 340 339 339 346 343 335 331 332 331 325
112 116 117 114 111 105 103 103 98 110 117 108 90 72 61 53 46 31 26 19 13 9 9 5 1 1 356 353 353 351 349 347 345 344 353 6 358 350 346 338 337 341 344 336 332 333 333 329 327
126 120 122 126 117 140 128 93 104 126 130 103 91 84 72 59 53 36 28 22 12 8 9 6 360 359 354 348 350 351 349 344 341 343 351 2 356 350 345 338 336 342 339 334 334 333 336 333 330
161 155 137 151 160 176 259 129 132 143 123 96 78 72 61 59 50 39 29 26 17 10 9 6 1 357 352 347 350 350 349 343 339 346 353 357 354 350 345 338 338 341 338 336 335 339 341 336 330
198 214 127 141 152 171 238 124 145 165 166 118 77 61 53 50 43 36 27 31 22 14 5 2 1 357 351 350 350 345 347 342 340 347 353 353 352 348 342 336 339 339 336 336 336 339 340 335 330
2 5 105 122 110 220 152 124 146 177 206 88 67 50 44 45 41 35 28 37 26 16 5 359 360 356 351 352 346 342 343 341 340 347 351 349 349 346 340 338 340 337 333 333 333 335 336 331 328
3 1 66 110 132 227 165 151 161 174 184 59 41 21 16 38 36 34 33 39 24 14 5 357 359 354 352 352 346 344 342 337 336 346 346 345 347 343 339 345 340 336 332 331 331 332 330 331 331
351 346 55 129 141 229 177 182 161 172 134 72 349 341 7 26 22 21 28 34 20 15 7 355 359 352 352 351 343 340 333 329 335 341 338 342 344 340 340 343 338 333 329 328 328 328 328 328 334
355 34 348 323 135 233 224 218 172 162 149 172 225 18 34 26 16 13 22 24 16 17 11 355 352 349 349 349 344 341 330 333 337 337 333 340 340 336 338 339 337 331 328 324 325 324 327 323 320
28 33 321 281 206 215 177 256 164 165 182 192 129 52 38 26 16 21 22 15 14 19 11 353 345 345 347 348 343 343 342 338 336 334 331 336 336 333 337 338 336 331 328 324 324 325 320 317 314
327 339 280 275 237 264 196 243 139 155 188 148 74 49 33 24 25 29 19 8 15 20 8 351 342 342 344 346 340 339 335 332 330 330 331 332 331 333 336 337 334 329 326 324 323 321 315 312 306
287 259 227 256 240 260 198 191 148 167 128 85 50 32 28 22 27 27 12 5 15 14 1 348 343 343 344 343 337 338 334 333 333 334 333 331 329 332 335 334 332 326 326 326 322 318 314 308 303
339 333 293 256 226 218 115 228 95 87 79 70 32 26 28 24 27 18 7 8 10 1 355 350 347 343 344 342 340 335 333 333 331 333 330 329 331 331 327 332 328 326 327 325 323 320 315 309 303
326 2 22 321 309 314 244 128 111 111 114 104 46 38 28 29 31 20 12 10 2 355 353 350 346 342 342 341 338 330 332 332 328 327 325 326 328 324 325 329 327 329 328 325 322 320 316 313 309
350 38 4 283 277 276 313 98 132 140 159 77 34 30 30 35 30 17 11 7 360 355 353 347 343 340 339 338 335 331 332 329 326 324 322 324 325 326 328 329 331 330 327 324 323 320 316 316 311
22 337 317 304 326 306 296 108 160 159 89 26 14 24 30 35 24 16 11 4 358 354 348 344 339 336 334 336 335 334 327 326 328 326 327 327 326 326 327 331 332 329 326 324 325 321 315 315 310
215 227 282 271 242 267 296 317 109 125 120 25 20 35 39 33 26 17 7 1 353 350 346 340 337 335 335 333 331 327 326 328 331 328 327 326 323 327 330 332 331 329 326 325 325 322 318 315 311
324 327 332 297 304 284 278 284 140 150 131 68 34 43 50 40 30 18 5 355 349 348 344 341 337 338 335 331 329 327 329 330 330 329 329 327 322 327 331 331 330 328 326 322 322 321 320 316 315
Height
1522 1521 1523 1526 1530 1540 1554 1556 1551 1550 1558 1566 1564 1568 1578 1587 1592 1605 1604 1597 1596 1592 1587 1583 1580 1577 1574 1572 1569 1567 1565 1563 1561 1559 1557 1556 1554 1552 1551 1549 1548 1547 1546 1545 1544 1544 1544 1544 1544
1523 1523 1527 1529 1537 1556 1565 1563 1562 1560 1563 1566 1570 1576 1582 1593 1599 1602 1600 1598 1597 1594 1589 1584 1581 1577 1574 1572 1569 1567 1565 1563 1560 1558 1556 1555 1553 1551 1549 1547 1546 1545 1544 1543 1542 1542 1542 1541 1541
1524 1526 1532 1537 1551 1564 1571 1569 1567 1567 1568 1570 1577 1584 1591 1600 1603 1603 1601 1600 1598 1595 1591 1586 1582 1579 1575 1572 1570 1567 1565 1562 1560 1558 1555 1553 1551 1549 1547 1545 1543 1542 1541 1540 1539 1539 1538 1538 1538
1526 1530 1537 1552 1568 1575 1574 1573 1566 1567 1572 1577 1581 1592 1601 1606 1606 1604 1603 1602 1599 1595 1591 1587 1583 1580 1576 1573 1570 1567 1564 1562 1559 1557 1554 1552 1549 1547 1545 1542 1541 1539 1538 1537 1537 1536 1535 1534 1534
1531 1535 1547 1564 1574 1581 1579 1577 1574 1574 1579 1586 1586 1598 1605 1608 1607 1606 1605 1602 1599 1595 1592 1588 1584 1580 1577 1574 1571 1567 1564 1561 1558 1555 1553 1550 1548 1545 1543 1540 1538 1536 1535 1534 1533 1532 1532 1531 1530
1534 1536 1555 1570 1577 1581 1584 1584 1582 1584 1587 1589 1592 1598 1608 1610 1609 1608 1605 1602 1599 1595 1592 1588 1584 1581 1577 1574 1571 1568 1564 1561 1558 1554 1551 1549 1546 1543 1541 1538 1536 1534 1532 1531 1529 1528 1528 1527 1526
1537 1544 1558 1568 1575 1582 1586 1588 1589 1591 1591 1593 1594 1600 1609 1611 1610 1609 1606 1603 1599 1595 1591 1587 1584 1580 1577 1574 1570 1567 1564 1560 1557 1553 1550 1547 1544 1541 1538 1536 1533 1531 1529 1527 1526 1524 1524 1523 1522
1539 1546 1558 1566 1575 1585 1590 1591 1595 1595 1598 1599 1598 1604 1611 1613 1611 1609 1606 1603 1599 1595 1590 1586 1583 1579 1576 1572 1569 1566 1562 1558 1555 1551 1547 1544 1541 1538 1535 1532 1530 1527 1525 1523 1522 1521 1519 1519 1518
1542 1555 1569 1570 1577 1585 1588 1592 1598 1603 1604 1605 1607 1610 1613 1613 1611 1608 1605 1601 1597 1593 1589 1585 1582 1578 1574 1570 1567 1563 1559 1556 1552 1548 1544 1540 1536 1534 1531 1528 1526 1523 1521 1519 1517 1516 1515 1514 1513
1552 1568 1579 1579 1579 1586 1591 1594 1599 1606 1607 1609 1611 1613 1613 1612 1609 1606 1603 1599 1596 1592 1589 1585 1581 1576 1572 1568 1564 1560 1556 1553 1549 1545 1541 1536 1533 1529 1526 1524 1521 1518 1516 1514 1512 1511 1510 1509 1508
1564 1576 1583 1587 1588 1591 1594 1599 1602 1606 1612 1613 1614 1614 1613 1612 1609 1606 1604 1601 1598 1595 1590 1585 1581 1576 1571 1566 1562 1557 1553 1550 1546 1542 1538 1534 1530 1526 1522 1518 1516 1513 1510 1508 1506 1506 1505 1503 1503
1573 1581 1584 1590 1592 1595 1597 1602 1606 1608 1614 1615 1615 1615 1614 1612 1610 1608 1605 1602 1599 1595 1590 1585 1580 1575 1570 1565 1560 1556 1552 1548 1544 1541 1537 1531 1527 1523 1519 1515 1512 1509 1506 1502 1500 1499 1498 1497 1497
1579 1589 1592 1594 1595 1598 1601 1605 1608 1613 1615 1616 1616 1615 1614 1613 1611 1609 1607 1604 1600 1595 1590 1585 1579 1574 1569 1564 1560 1556 1552 1548 1544 1540 1536 1531 1526 1521 1517 1513 1510 1507 1503 1499 1496 1494 1492 1491 1491
1583 1589 1594 1598 1598 1601 1603 1607 1610 1614 1615 1616 1616 1616 1615 1614 1612 1610 1607 1604 1599 1595 1590 1585 1580 1574 1569 1564 1559 1555 1551 1546 1542 1539 1535 1530 1525 1520 1515 1511 1508 1504 1500 1496 1493 1490 1487 1485 1485
1583 1589 1595 1598 1600 1602 1602 1609 1613 1615 1615 1616 1616 1616 1616 1615 1612 1611 1608 1604 1600 1596 1591 1585 1580 1574 1569 1564 1559 1554 1550 1545 1541 1537 1533 1528 1523 1519 1514 1510 1506 1502 1498 1494 1490 1486 1483 1480 1479
1582 1586 1591 1597 1597 1600 1603 1609 1614 1614 1615 1615 1616 1616 1616 1615 1614 1612 1609 1605 1601 1596 1590 1585 1579 1573 1568 1563 1558 1553 1548 1543 1539 1535 1531 1525 1521 1516 1512 1508 1505 1500 1496 1492 1487 1483 1478 1475 1473
1578 1576 1587 1595 1595 1596 1598 1606 1612 1613 1614 1615 1616 1617 1617 1616 1614 1612 1609 1605 1600 1595 1590 1584 1578 1572 1567 1562 1556 1551 1546 1542 1537 1534 1529 1524 1519 1514 1510 1507 1503 1499 1494 1490 1485 1481 1476 1471 1468
1575 1569 1576 1590 1596 1595 1597 1606 1611 1613 1615 1616 1616 1617 1616 1615 1614 1611 1608 1604 1599 1594 1589 1583 1577 1571 1565 1560 1554 1549 1544 1539 1536 1532 1527 1523 1518 1513 1509 1505 1501 1497 1493 1488 1484 1479 1474 1470 1466
1572 1573 1579 1592 1594 1594 1596 1605 1610 1613 1614 1615 1616 1616 1616 1614 1613 1610 1607 1602 1598 1593 1587 1582 1576 1570 1564 1558 1552 1546 1541 1537 1534 1530 1525 1521 1516 1511 1508 1503 1499 1495 1491 1487 1483 1478 1473 1468 1464
1574 1576 1580 1592 1593 1593 1597 1602 1607 1611 1612 1614 1615 1615 1614 1613 1612 1610 1606 1601 1596 1591 1586 1580 1575 1570 1564 1558 1552 1547 1542 1537 1533 1528 1524 1519 1515 1510 1506 1502 1497 1493 1489 1485 1481 1477 1472 1468 1465
1576 1584 1586 1588 1594 1595 1598 1600 1604 1607 1611 1613 1614 1614 1613 1612 1611 1608 1604 1600 1595 1590 1584 1579 1574 1569 1563 1557 1551 1545 1540 1535 1529 1524 1520 1516 1512 1508 1504 1500 1495 1491 1487 1482 1478 1475 1471 1466 1464
1583 1587 1587 1586 1594 1592 1598 1597 1601 1604 1608 1610 1612 1612 1612 1611 1609 1606 1602 1598 1594 1589 1583 1578 1573 1568 1562 1556 1550 1544 1538 1533 1528 1524 1518 1514 1509 1505 1501 1496 1492 1488 1484 1479 1475 1472 1468 1464 1461
1586 1585 1586 1585 1588 1590 1592 1595 1597 1602 1605 1608 1610 1610 1610 1609 1607 1604 1600 1597 1593 1588 1582 1577 1571 1566 1561 1555 1549 1543 1538 1533 1527 1522 1516 1511 1505 1501 1497 1492 1488 1484 1480 1476 1472 1468 1464 1461 1458
1585 1582 1584 1585 1588 1591 1575 1587 1592 1599 1601 1606 1608 1609 1608 1607 1605 1602 1599 1596 1591 1586 1580 1575 1570 1564 1559 1553 1548 1542 1536 1531 1525 1519 1513 1508 1503 1498 1493 1489 1484 1480 1476 1471 1467 1463 1460 1457 1454
1586 1587 1589 1588 1590 1580 1574 1578 1599 1604 1605 1607 1609 1608 1607 1606 1603 1601 1597 1593 1588 1583 1578 1573 1568 1562 1556 1551 1546 1540 1535 1529 1524 1518 1512 1506 1500 1495 1490 1485 1480 1476 1471 1467 1463 1458 1455 1451 1448
1590 1591 1604 1608 1595 1582 1570 1583 1607 1605 1606 1607 1607 1607 1606 1604 1602 1599 1596 1591 1586 1582 1577 1571 1566 1560 1554 1549 1543 1538 1533 1528 1522 1517 1511 1506 1500 1494 1488 1483 1478 1472 1467 1462 1458 1454 1450 1446 1443
1595 1598 1599 1604 1595 1591 1575 1606 1607 1605 1605 1606 1606 1605 1603 1602 1600 1598 1594 1590 1585 1580 1575 1570 1564 1558 1553 1547 1541 1536 1531 1526 1520 1515 1509 1504 1498 1492 1486 1480 1474 1469 1463 1458 1454 1449 1445 1441 1437
1597 1599 1600 1601 1606 1604 1584 1580 1597 1604 1604 1604 1604 1602 1601 1600 1598 1596 1592 1588 1584 1579 1574 1568 1563 1557 1551 1545 1539 1534 1529 1523 1518 1512 1506 1501 1495 1489 1483 1477 1471 1465 1460 1455 1450 1445 1440 1436 1432
1596 1596 1596 1599 1600 1607 1604 1596 1598 1602 1602 1602 1602 1601 1600 1599 1597 1594 1591 1587 1582 1578 1572 1567 1561 1555 1549 1543 1537 1531 1526 1521 1515 1509 1503 1497 1492 1486 1481 1474 1468 1462 1456 1451 1446 1441 1436 1432 1428
1598 1597 1599 1606 1600 1595 1600 1601 1598 1599 1600 1600 1601 1600 1599 1598 1596 1593 1589 1585 1580 1575 1570 1565 1559 1553 1547 1541 1535 1529 1523 1518 1512 1506 1500 1494 1489 1484 1478 1472 1465 1459 1453 1448 1442 1437 1432 1428 1425